Powrót do katalogu

STARLINK-3509

AktywnyŁącznośćVLEO
NORAD 51737·PAYLOAD·🇺🇸 United States

Wystrzelony Feb 21, 2022 z Cape Canaveral Space Force Station

Loading…

Następne Przeloty (najbliższe 24 godziny)

TLE

ŚwieżeSource: CelesTrak SupGP

Epoka: Sep 14, 2026, 20:45 UTC

1 51737C 22016Z   26257.86506944 -.00015022  00000+0 -39875-3 0  2571
2 51737  53.1556 176.7590 0002781  94.3885 341.4625 15.37727432    17

Śledź STARLINK-3509 w czasie rzeczywistym z AllMySat

Download on the App Store